| time (UTC) | temp C | wind direction | speed KPH | gust KPH | rain 1hr cm | rain 24hr cm | rain mn cm | humidity % | barometer mb |
| 20260503173325 | 13 | 302 | 0.0 | 9.7 | 0.00 | 0.00 | 0.00 | 38 | 1012.9 |
| 20260503171833 | 12 | 320 | 3.2 | 8.0 | 0.00 | 0.00 | 0.00 | 44 | 1012.9 |
| 20260503170347 | 12 | 5 | 6.4 | 16.1 | 0.00 | 0.00 | 0.00 | 40 | 1013.1 |
| 20260503150334 | 10 | 315 | 3.2 | 9.7 | 0.00 | 0.00 | 0.00 | 50 | 1013.9 |
| 20260503130316 | 10 | 278 | 1.6 | 6.4 | 0.00 | 0.00 | 0.00 | 59 | 1013.6 |
| 20260503110334 | 6 | 312 | 0.0 | 4.8 | 0.00 | 0.00 | 0.00 | 69 | 1013.0 |
| 20260503090319 | 4 | 312 | 0.0 | 0.0 | 0.00 | 0.00 | 0.00 | 88 | 1011.3 |
| 20260503080332 | 4 | 312 | 0.0 | 0.0 | 0.00 | 0.00 | 0.00 | 88 | 1010.9 |
| 20260503071837 | 5 | 312 | 0.0 | 0.0 | 0.00 | 0.00 | 0.00 | 87 | 1010.6 |
| 20260503070330 | 5 | 312 | 0.0 | 0.0 | 0.00 | 0.00 | 0.00 | 87 | 1010.7 |
| 20260503060323 | 5 | 312 | 0.0 | 0.0 | 0.00 | 0.00 | 0.00 | 88 | 1011.0 |
| 20260503054848 | 5 | 312 | 0.0 | 0.0 | 0.00 | 0.00 | 0.00 | 86 | 1010.9 |
| 20260503053322 | 5 | 312 | 0.0 | 0.0 | 0.00 | 0.00 | 0.00 | 84 | 1011.2 |
| 20260503051816 | 5 | 312 | 0.0 | 0.0 | 0.00 | 0.00 | 0.00 | 84 | 1011.3 |
| 20260503050330 | 6 | 312 | 0.0 | 0.0 | 0.00 | 0.00 | 0.00 | 82 | 1011.4 |
| 20260503044827 | 6 | 312 | 0.0 | 0.0 | 0.00 | 0.00 | 0.00 | 81 | 1011.5 |
| 20260503043326 | 7 | 312 | 0.0 | 0.0 | 0.00 | 0.00 | 0.00 | 79 | 1011.6 |
| 20260503041822 | 7 | 312 | 0.0 | 0.0 | 0.00 | 0.00 | 0.00 | 78 | 1011.8 |
| 20260503040314 | 7 | 312 | 0.0 | 0.0 | 0.00 | 0.00 | 0.00 | 71 | 1011.8 |
| 20260503034828 | 7 | 312 | 0.0 | 0.0 | 0.00 | 0.00 | 0.00 | 72 | 1011.8 |
| 20260503033325 | 8 | 312 | 0.0 | 0.0 | 0.00 | 0.00 | 0.00 | 77 | 1011.7 |
| 20260503031850 | 8 | 312 | 0.0 | 0.0 | 0.00 | 0.00 | 0.00 | 72 | 1011.6 |
| 20260503030318 | 8 | 312 | 0.0 | 0.0 | 0.00 | 0.00 | 0.00 | 72 | 1011.7 |
| 20260503024850 | 8 | 312 | 0.0 | 0.0 | 0.00 | 0.00 | 0.00 | 70 | 1011.7 |
| 20260503023319 | 8 | 312 | 0.0 | 0.0 | 0.00 | 0.00 | 0.00 | 72 | 1011.9 |
| 20260503021834 | 9 | 312 | 0.0 | 0.0 | 0.00 | 0.00 | 0.00 | 64 | 1011.7 |
| 20260503020346 | 10 | 312 | 0.0 | 0.0 | 0.00 | 0.00 | 0.00 | 60 | 1011.8 |
| 20260503014822 | 10 | 312 | 0.0 | 0.0 | 0.00 | 0.00 | 0.00 | 65 | 1011.7 |
| 20260503013337 | 10 | 312 | 0.0 | 0.0 | 0.00 | 0.00 | 0.00 | 66 | 1011.6 |
| 20260503011849 | 10 | 312 | 0.0 | 0.0 | 0.00 | 0.00 | 0.00 | 66 | 1011.5 |
| 20260503010323 | 10 | 312 | 0.0 | 0.0 | 0.00 | 0.00 | 0.00 | 64 | 1011.4 |
| 20260503004854 | 10 | 312 | 0.0 | 0.0 | 0.00 | 0.00 | 0.00 | 61 | 1011.3 |
| 20260503003323 | 11 | 312 | 0.0 | 0.0 | 0.00 | 0.00 | 0.00 | 64 | 1011.1 |
| 20260503001817 | 11 | 312 | 0.0 | 0.0 | 0.00 | 0.00 | 0.00 | 58 | 1011.0 |
| 20260503000349 | 12 | 312 | 0.0 | 0.0 | 0.00 | 0.00 | 0.00 | 59 | 1011.0 |
| 20260502234820 | 12 | 312 | 0.0 | 0.0 | 0.00 | 0.00 | 0.00 | 56 | 1010.8 |
| 20260502233335 | 12 | 312 | 0.0 | 0.0 | 0.00 | 0.00 | 0.00 | 51 | 1010.6 |
| 20260502230323 | 13 | 312 | 0.0 | 4.8 | 0.00 | 0.00 | 0.00 | 47 | 1010.7 |
| 20260502224818 | 13 | 312 | 0.0 | 4.8 | 0.00 | 0.00 | 0.00 | 42 | 1010.6 |
| 20260502223334 | 14 | 311 | 1.6 | 6.4 | 0.00 | 0.00 | 0.00 | 42 | 1010.6 |
| 20260502221821 | 14 | 320 | 1.6 | 6.4 | 0.00 | 0.00 | 0.00 | 42 | 1010.4 |
| 20260502220316 | 15 | 309 | 0.0 | 1.6 | 0.00 | 0.00 | 0.00 | 46 | 1010.4 |
| 20260502214828 | 15 | 309 | 0.0 | 3.2 | 0.00 | 0.00 | 0.00 | 41 | 1010.5 |
| 20260502213343 | 15 | 309 | 1.6 | 4.8 | 0.00 | 0.00 | 0.00 | 43 | 1010.3 |
| 20260502211816 | 15 | 51 | 1.6 | 8.0 | 0.00 | 0.00 | 0.00 | 43 | 1010.2 |
| 20260502210328 | 15 | 285 | 1.6 | 4.8 | 0.00 | 0.00 | 0.00 | 42 | 1010.0 |
| 20260502204822 | 15 | 319 | 1.6 | 6.4 | 0.00 | 0.00 | 0.00 | 39 | 1010.0 |
| 20260502203353 | 15 | 319 | 0.0 | 8.0 | 0.00 | 0.00 | 0.00 | 40 | 1010.0 |
| 20260502201826 | 15 | 5 | 1.6 | 8.0 | 0.00 | 0.00 | 0.00 | 41 | 1010.2 |
| 20260502200321 | 15 | 305 | 1.6 | 8.0 | 0.00 | 0.00 | 0.00 | 43 | 1010.3 |
| 20260502194828 | 16 | 336 | 3.2 | 8.0 | 0.00 | 0.00 | 0.00 | 40 | 1010.5 |
| 20260502193347 | 16 | 331 | 4.8 | 8.0 | 0.00 | 0.00 | 0.00 | 41 | 1010.8 |
| 20260502191838 | 16 | 348 | 3.2 | 6.4 | 0.00 | 0.00 | 0.00 | 41 | 1010.9 |
| 20260502190350 | 16 | 228 | 1.6 | 6.4 | 0.00 | 0.00 | 0.00 | 45 | 1011.3 |
| 20260502184846 | 15 | 346 | 1.6 | 6.4 | 0.00 | 0.00 | 0.00 | 45 | 1011.5 |
| 20260502183317 | 15 | 56 | 1.6 | 6.4 | 0.00 | 0.00 | 0.00 | 44 | 1011.7 |
| 20260502181835 | 16 | 304 | 1.6 | 11.3 | 0.00 | 0.00 | 0.00 | 44 | 1011.7 |
| 20260502180323 | 15 | 32 | 6.4 | 11.3 | 0.00 | 0.00 | 0.00 | 44 | 1011.6 |